Tracking 21992 objects as of 27-Nov-2020
HD Live streaming from Space Station
objects crossing your sky now

COSMOS 2228

Track COSMOS 2228 now!
10-day predictions
COSMOS 2228 is classified as:


NORAD ID: 22286
Int'l Code: 1992-094A
Perigee: 597.1 km
Apogee: 624.3 km
Inclination: 82.5 °
Period: 96.8 minutes
Semi major axis: 6981 km
RCS: 5.331 m2 (large)
Launch date: December 25, 1992
Source: Commonwealth of Independent States (former USSR) (CIS)
Launch site: PLESETSK MISSILE AND SPACE COMPLEX (PKMTR)
aabbcc
Your satellite tracking list
Your tracking list is empty




NASA's NSSDC Master Catalog

Two Line Element Set (TLE):
1 22286U 92094A   20332.36258180  .00000348  00000-0  34987-4 0  9997
2 22286  82.5203 266.1357 0019521 259.7326 100.1690 14.88194862509747
Source of the keplerian elements: AFSPC